Regional Weather Roundup
Issued by NWS

Home | Current Version | Previous Version | Text Only | Print | Product List | Glossary Off
Versions: 1 2 3 4 5 6 7 8 9 10 11 12 13 14 15 16 17 18 19 20 21 22 23 24 25 26 27 28 29 30 31 32 33 34 35 36 37 38 39 40 41 42 43 44 45 46 47 48 49 50

078
ASUS45 KTFX 250810
RWRMT
MONTANA REGIONAL WEATHER ROUNDUP
NATIONAL WEATHER SERVICE GREAT FALLS MT
200 AM MDT WED MAY 25 2016

NOTE: "FAIR" INDICATES FEW OR NO CLOUDS BELOW 12000 FEET WITH NO
SIGNIFICANT WEATHER AND/OR OBSTRUCTIONS TO VISIBILITY.

MTZ001>007-043-250900-
WEST OF THE DIVIDE

CITY           SKY/WX    TMP DP  RH WIND       PRES   REMARKS
KALISPELL      CLOUDY    42  42 100 CALM      29.93R
MISSOULA       CLEAR     41  38  89 NW3       29.97R
BUTTE          CLEAR     34  32  92 E5        29.97F
MULLAN PASS    FOG       38  38 100 NW5       29.98S VSB 1/4
ANACONDA         N/A     37  34  87 S5        29.96S
DEER LODGE       N/A     37  36  93 CALM      29.97S
EUREKA           N/A     48  41  76 SE6       29.92R
HAMILTON         N/A     45  41  87 S6        29.96S
LIBBY            N/A     41  39  93 CALM      29.94R
PLAINS           N/A     41  37  85 CALM      29.97R
$$

MTZ008-052>055-250900-
SOUTHWEST MONTANA

CITY           SKY/WX    TMP DP  RH WIND       PRES   REMARKS
BOZEMAN        CLOUDY    42  39  89 SE3       29.93F
DILLON         CLOUDY    40  36  86 SW6       29.94F
ENNIS          MOCLDY    41  39  93 S8        30.00S
TWIN BRIDGES     N/A     41  35  79 CALM      29.94S
$$

MTZ009-010-012-014-046-048-049-054-250900-
EAST SLOPES AND CENTRAL MONTANA

CITY           SKY/WX    TMP DP  RH WIND       PRES   REMARKS
CUT BANK       PTCLDY    40  37  89 W5        29.87F
GREAT FALLS    CLEAR     40  37  89 SW9       29.89F
MALMSTROM AFB  CLEAR     42  40  90 SW12      29.89F
HELENA         CLEAR     44  40  85 CALM      29.91F
CHOTEAU          N/A     45  39  81 W3        29.89F
CONRAD           N/A     39  38  97 CALM      29.91S
$$

MTZ011-013-016-021-045-047-050-051-250900-
NORTH CENTRAL MONTANA

CITY           SKY/WX    TMP DP  RH WIND       PRES   REMARKS
HAVRE            N/A    N/A N/A N/A MISG      29.87F
LEWISTOWN      CLEAR     40  36  86 S3        29.91S
N BAR RANCH      N/A     37  36  93 W5        29.93S
CHINOOK          N/A     43  43 100 CALM      29.88F
$$

MTZ017>020-022>027-061-062-250900-
NORTHEAST MONTANA

CITY           SKY/WX    TMP DP  RH WIND       PRES   REMARKS
GLASGOW        CLEAR     47  42  83 NE9       29.87F
JORDAN           N/A     43  40  89 CALM      29.87F
SIDNEY         CLOUDY    55  43  62 N12       29.87F
WOLF POINT     CLOUDY    51  42  71 NE7       29.88F
PLENTYWOOD       N/A     48  43  81 CALM      29.90R
POPLAR           N/A     54  45  71 CALM      29.89F
SCOBEY           N/A     40  29  65 CALM      29.88F
$$

MTZ028>42-056>058-250900-
SOUTHCENTRAL AND SOUTHEAST MONTANA

CITY           SKY/WX    TMP DP  RH WIND       PRES   REMARKS
BAKER          CLOUDY    53  47  79 CALM      29.81F
BILLINGS       CLOUDY    48  44  86 NW8       29.90F
LIVINGSTON     MOCLDY    44  38  79 SE8       29.92F
MILES CITY     CLOUDY    53  48  83 NE9       29.85F
FORSYTH          N/A     52  52 100 SW5       29.86S
$$

REGIONAL REPORTS...DAKOTAS

CITY           SKY/WX    TMP DP  RH WIND       PRES   REMARKS
WILLISTON      CLOUDY    57  39  51 N10       29.88R
MINOT          CLOUDY    60  49  66 CALM      29.86F
DICKINSON      CLOUDY    55  50  83 NW8       29.83S
BEACH          CLOUDY    48  48 100 NW12      29.88F
CROSBY           N/A     45  39  81 NW5       29.90F
WATFORD CITY   CLOUDY    52  41  66 S3        29.89R
BISMARCK       CLOUDY    60  55  83 NE10      29.84F
GRAND FORKS    PTCLDY    60  50  69 E6        29.87S
FARGO          CLOUDY    66  52  60 E10       29.85S
BUFFALO SD       N/A     54  47  77 SE16      29.72F
RAPID CITY     CLOUDY    51  47  86 CALM      29.85R
$$

REGIONAL REPORTS...WYOMING/IDAHO/WASHINGTON

CITY           SKY/WX    TMP DP  RH WIND       PRES   REMARKS
GILLETTE       CLOUDY    47  45  93 NW5       29.87F
SHERIDAN       CLOUDY    48  45  89 NW8       29.91S
BUFFALO WY     CLOUDY    47  41  80 NW10      29.90F
CODY           CLOUDY    45  43  93 CALM      29.91S
YELLOWSTONE LA   N/A     33  31  92 CALM      30.01F
IDAHO FALLS    CLOUDY    48  44  86 N6        29.95S
SALMON         CLEAR     48  37  66 S8        29.93S
BOISE          MOCLDY    54  39  57 CALM      29.90R
SPOKANE        PTCLDY    52  45  77 S7        29.93S
$$

REGIONAL REPORTS...ALBERTA

CITY           SKY/WX    TMP DP  RH WIND       PRES   REMARKS
EDMONTON       CLEAR     50  43  76 S8        29.82S
CALGARY        CLEAR     45  37  76 S8        29.85S
LETHBRIDGE     PTCLDY    41  39  93 SW5       29.86S
MEDICINE HAT   CLEAR     39  39 100 SE2       29.87F
$$

REGIONAL REPORTS...SASKATCHEWAN

CITY           SKY/WX    TMP DP  RH WIND       PRES   REMARKS
SWIFT CURRENT  CLEAR     43  43 100 SW8       29.86S
REGINA         CLEAR     41  37  87 S7        29.88F
SASKATOON      CLEAR     45  45 100 NE9       29.89R
$$




USA.gov is the U.S. government's official web portal to all federal, state and local government web resources and services.